Location: Kapuskasing
(49.3803°N, 82.4001°W)
Time: 09:56:31
(UTC-04:00)

RS-44 - Pass Details

Date: 17 March 2026
Orbit: 1175 x 1510 km, 82.5° (Epoch: 11 April)

Event Time Altitude Azimuth Distance (km) Brightness Sun altitude
Rises 01:46:52 0° 352° (N) 4,382 ? -41.9°
Reaches altitude 10° 01:50:25 10° 7° (N) 3,461 ? -41.9°
Maximum altitude 01:56:48 24° 58° (ENE) 2,647 ? -41.8°
Enters shadow 02:00:08 19° 88° (E) 2,940 ? -41.7°
